Theta_e
313 313 314 314 314 313 313 312 311 310 309 313 310 309 310 306 301 311 314 312 308 303 296 300 298 295 296 298 298 297 297 295 297 297 298 296 297 297 296 294 294 295 295 294 293 294 291 292 291 293 293 293 296 297 298 299 300 299 297 298 297 304 294 291 291 294 294 296 297 298 298 296 295 296 296 295 292 292 293 294 296 296 295 297 297 296 295
313 314 314 314 313 312 312 311 311 311 309 308 308 312 307 309 305 307 312 312 308 302 294 293 295 296 298 298 296 298 297 297 296 296 297 296 296 295 295 296 297 294 296 295 292 294 290 293 293 292 295 293 298 297 297 301 299 300 296 296 297 292 293 294 289 289 291 293 295 294 296 297 293 293 295 295 296 295 294 297 298 294 291 292 297 291 294
313 314 314 314 313 312 312 311 311 311 310 310 311 313 309 307 307 310 310 311 308 298 298 297 295 295 295 295 294 296 296 297 296 296 296 298 296 296 294 295 297 295 296 295 296 295 294 291 294 294 294 294 298 297 297 300 301 302 305 304 301 295 291 292 287 285 283 284 285 288 290 291 293 294 294 295 294 293 295 294 295 291 292 294 296 293 295
313 313 314 313 313 313 312 312 311 311 310 306 313 309 306 302 298 301 303 306 304 301 303 300 298 296 297 295 294 295 294 297 298 298 296 298 298 298 297 297 298 296 296 294 293 293 296 294 293 294 293 295 296 296 297 297 301 304 306 303 301 294 294 292 293 290 289 291 290 291 294 293 290 291 292 293 295 295 295 296 294 291 293 293 293 294 295
313 313 314 313 313 312 312 311 312 311 309 308 312 308 305 304 299 298 297 303 301 299 301 299 299 296 298 294 294 293 294 295 296 299 295 297 297 297 297 296 294 294 295 292 292 294 293 295 294 293 293 294 295 298 297 298 302 305 301 303 299 296 292 292 293 291 291 292 291 292 293 290 291 290 291 293 293 294 294 293 291 295 294 289 295 297 295
313 314 314 314 313 312 312 311 311 311 309 306 314 307 306 300 300 302 303 295 293 297 296 299 299 298 298 295 296 293 293 294 293 297 297 297 299 295 297 298 297 296 294 294 291 292 292 294 291 294 294 294 296 295 297 296 300 301 297 301 297 293 289 291 292 290 291 292 292 293 292 291 291 291 291 291 292 293 291 292 292 293 293 291 294 296 298
313 313 314 315 313 313 313 312 311 310 309 308 315 308 304 305 304 303 304 298 297 297 299 299 299 299 300 297 296 294 294 292 294 293 295 297 296 297 292 293 296 296 297 296 292 294 289 289 293 293 293 293 294 292 295 296 299 298 297 298 299 295 290 291 292 290 291 292 292 292 291 291 290 290 291 292 292 292 292 292 292 293 294 294 297 299 301
313 313 314 314 314 313 313 312 311 310 308 313 313 306 304 303 302 299 302 304 302 301 298 298 298 296 299 295 295 295 294 293 295 296 295 293 294 298 294 295 296 297 297 298 293 293 295 294 291 294 294 292 294 292 293 293 298 298 295 297 297 295 291 292 291 290 289 291 292 292 291 291 289 290 291 291 291 292 292 291 293 295 294 296 299 301 301
313 313 314 314 314 313 313 312 311 310 310 315 310 308 308 306 307 308 305 298 299 303 298 298 298 296 298 295 296 297 295 294 296 296 298 295 295 296 295 296 296 297 297 296 295 297 298 297 296 297 296 291 295 294 294 296 294 296 296 296 296 296 292 292 291 287 287 289 290 290 291 290 289 290 291 291 290 290 292 292 293 293 293 296 297 299 300
313 313 314 314 314 314 313 312 311 309 309 311 311 308 309 309 307 306 307 298 299 296 297 296 297 294 297 298 297 296 296 298 297 295 299 300 299 298 297 297 296 295 295 294 296 298 298 298 299 300 298 298 298 299 297 297 296 296 295 297 294 294 292 289 289 286 286 290 290 290 290 288 287 288 290 291 292 293 293 294 295 295 296 294 293 299 306
312 313 313 314 314 315 315 313 312 309 312 312 312 308 309 308 307 307 306 298 298 297 297 297 297 297 298 298 298 299 298 298 298 294 294 300 299 299 299 298 296 294 295 298 300 300 300 300 299 300 300 300 299 299 300 299 300 299 297 295 295 296 293 291 292 286 287 289 290 291 287 281 283 293 294 294 292 293 291 292 295 301 302 301 306 305 307
312 313 313 314 314 314 315 314 312 309 308 308 312 310 310 308 305 307 305 297 295 298 298 296 297 298 298 298 299 299 299 299 298 302 297 298 300 301 300 300 301 294 299 303 303 302 302 303 302 301 300 300 299 300 300 298 298 301 299 296 295 294 294 292 292 289 287 289 289 286 280 283 292 295 298 299 298 296 294 294 301 303 304 304 304 305 305
312 312 313 313 314 314 314 314 313 311 309 311 314 310 311 310 306 306 305 301 295 298 296 297 298 298 299 300 299 300 300 300 302 303 301 300 300 301 302 300 299 300 306 301 302 301 297 295 296 296 296 298 298 299 298 298 298 299 300 300 296 293 292 293 290 291 290 288 287 279 281 291 294 295 298 301 300 299 300 298 302 303 304 305 304 304 305
312 312 313 313 314 314 314 315 313 313 309 310 314 311 312 310 311 309 309 301 297 299 297 298 298 299 300 300 300 298 299 300 301 302 300 302 300 301 303 305 304 306 305 304 302 300 295 296 291 292 292 294 294 293 295 296 297 297 298 299 299 296 295 293 289 292 285 287 286 286 291 289 292 293 295 298 295 296 295 290 297 302 302 303 303 304 304
312 312 312 313 313 314 314 314 314 313 311 308 314 313 313 312 310 309 303 307 298 298 297 295 298 299 300 299 300 298 299 299 299 299 300 301 301 303 304 305 308 304 304 302 299 299 295 294 288 288 288 288 283 286 293 291 295 297 298 299 299 299 293 294 290 288 290 286 285 286 285 281 289 296 299 301 301 301 301 296 293 300 301 303 303 302 302
312 312 312 312 313 313 314 314 314 313 311 308 313 312 313 311 309 309 307 308 303 293 298 301 303 301 300 300 300 299 297 298 299 299 299 301 302 304 306 308 307 305 304 301 300 297 294 291 287 285 283 285 287 284 285 291 290 294 297 298 298 297 298 296 291 289 288 287 283 283 280 286 295 296 299 301 301 301 302 294 289 298 300 301 302 300 301
312 312 311 312 313 313 313 314 314 313 311 308 311 312 313 312 313 313 311 308 306 298 301 303 303 303 301 299 299 299 301 298 299 295 295 297 300 302 305 308 307 306 303 301 299 296 292 288 287 287 286 287 284 284 285 285 287 289 294 296 295 294 295 294 289 288 289 287 284 283 288 286 294 299 299 300 302 300 297 284 286 298 300 301 301 300 300
312 311 311 312 312 313 313 313 313 314 312 309 312 314 314 314 311 312 312 308 305 302 304 304 303 301 300 301 300 300 301 300 300 301 299 299 299 301 302 304 302 302 304 298 297 294 291 288 287 287 286 290 289 286 283 282 282 287 288 290 288 290 291 291 287 289 289 287 287 288 290 296 298 298 300 301 301 298 287 283 294 301 300 302 301 301 300
312 311 311 311 312 312 313 313 313 313 313 308 311 312 315 314 314 313 312 307 305 300 304 305 307 305 305 305 304 303 302 302 304 298 298 296 300 302 302 302 302 298 302 299 296 294 291 289 290 287 288 288 289 286 286 284 285 288 289 286 286 287 289 291 289 287 287 289 286 287 291 297 301 302 301 302 297 286 287 297 299 301 300 303 302 300 302
312 311 311 311 311 312 312 312 312 313 313 310 310 314 313 313 314 313 312 307 302 305 305 306 307 305 307 305 302 302 302 301 302 300 298 295 301 300 300 297 302 302 299 300 294 294 291 288 291 288 287 288 289 289 286 286 291 290 290 292 288 289 286 286 286 290 288 288 286 284 281 295 302 300 299 301 292 294 298 300 301 301 302 301 301 301 301
312 311 311 311 311 311 311 312 312 312 313 312 307 312 314 314 314 314 312 313 308 304 305 304 305 307 308 308 308 308 306 302 302 300 302 301 304 301 291 293 298 299 296 297 290 293 294 288 291 289 292 291 291 288 286 287 288 294 294 292 291 296 288 287 288 293 286 285 283 284 291 300 303 300 293 299 300 302 302 301 299 303 302 301 301 302 302
311 311 311 311 311 311 311 311 312 312 312 312 307 310 312 312 309 312 313 312 309 307 307 307 308 309 310 311 312 310 309 308 308 308 304 301 302 301 301 302 302 301 301 301 297 295 296 295 295 291 289 289 292 288 289 287 286 289 294 294 286 296 292 293 289 295 290 287 292 298 298 301 304 303 302 305 306 304 304 302 302 301 302 303 301 301 301
311 311 311 310 310 310 311 311 311 311 311 312 310 309 310 309 310 312 312 311 312 311 310 310 309 310 312 313 315 314 314 314 312 309 309 305 302 301 302 301 301 304 304 303 299 299 298 296 294 297 293 293 290 289 289 288 288 290 288 296 294 297 297 297 295 293 297 297 297 299 299 299 301 303 304 303 303 305 304 303 302 303 303 303 301 301 301
311 311 310 310 310 310 310 311 311 311 311 312 310 309 307 307 307 311 313 308 306 306 308 307 306 306 306 308 311 315 315 313 312 313 314 312 302 301 303 304 306 304 305 307 307 301 300 299 297 296 290 295 295 291 288 286 287 292 290 290 294 297 297 295 293 297 291 289 301 297 298 300 301 302 304 306 305 305 304 304 304 303 303 303 303 302 302
311 311 310 310 311 310 310 310 310 311 311 310 311 311 310 309 309 309 311 307 307 304 301 305 306 307 310 313 314 312 314 316 317 314 312 311 309 305 303 307 308 305 306 306 304 304 302 298 295 296 290 298 297 290 297 290 290 295 289 292 293 292 299 295 295 295 292 293 298 299 300 301 302 302 301 302 303 304 305 305 305 304 304 304 303 303 302
311 310 310 310 310 310 310 310 310 310 310 312 311 308 307 307 309 309 312 310 308 307 302 301 304 310 312 311 310 311 313 314 315 313 312 312 312 311 309 308 308 309 307 305 306 303 302 301 300 299 294 295 300 293 293 296 296 297 293 294 298 298 298 291 296 293 295 299 299 299 300 300 300 301 302 303 304 304 304 304 304 304 303 303 303 303 303
311 310 310 310 310 310 310 310 310 310 310 311 310 310 308 308 310 308 310 311 307 301 303 303 306 308 310 309 312 314 314 314 313 313 313 312 311 312 310 309 308 306 306 304 307 304 303 302 299 297 298 299 299 297 298 295 295 294 292 296 298 296 293 296 295 292 291 293 296 300 294 293 299 302 303 304 305 305 304 304 303 303 303 303 303 303 304
310 310 310 310 309 309 310 310 310 310 311 310 310 310 310 308 309 310 309 309 308 302 302 303 304 308 311 306 312 313 313 313 313 312 311 311 312 311 309 308 308 306 306 304 301 300 300 297 297 302 300 301 297 296 298 300 297 294 294 295 297 295 298 296 292 292 292 299 302 303 301 302 302 302 303 305 306 304 303 302 302 303 304 304 303 302 303
310 309 309 309 309 309 309 310 310 310 310 310 309 308 308 309 311 310 310 310 311 308 306 306 308 307 301 305 312 312 314 314 312 311 311 310 310 310 309 308 307 307 307 306 305 304 302 303 305 301 300 304 299 296 296 293 292 291 295 299 297 299 304 300 299 300 301 304 305 304 302 299 303 303 304 303 305 304 303 304 304 304 304 304 304 304 302
309 309 309 309 309 309 309 309 309 310 310 310 307 305 306 307 308 309 310 310 311 311 304 301 298 303 310 310 310 311 311 312 312 311 310 310 309 309 309 308 307 308 308 306 305 301 303 302 301 303 303 306 299 298 294 295 293 297 302 303 302 302 302 302 303 300 299 304 305 305 303 303 305 305 305 305 305 305 303 304 304 304 305 305 304 304 304
309 308 308 308 308 309 309 309 309 310 309 307 305 303 305 302 307 311 309 311 312 311 307 305 300 306 306 311 310 309 310 311 312 310 308 308 309 308 309 309 310 309 304 306 304 304 304 300 300 301 304 303 301 297 293 292 291 294 299 302 302 302 302 302 303 304 303 304 304 304 304 304 304 302 302 304 304 305 305 305 306 306 306 306 305 305 305
308 308 308 308 308 309 309 309 309 310 309 305 304 304 305 307 309 310 311 311 313 310 306 300 301 302 302 306 309 312 310 311 312 312 313 313 308 311 309 311 307 309 305 299 301 301 300 305 302 302 298 302 301 297 297 293 291 293 301 300 303 304 304 304 304 304 304 304 303 300 300 302 302 301 302 305 305 306 306 306 306 306 306 306 306 306 305
308 308 308 308 309 309 309 310 310 309 308 309 310 310 310 308 309 310 312 312 311 308 308 303 298 301 299 303 308 309 310 310 309 309 308 313 309 309 306 308 309 308 309 304 299 299 305 304 304 301 303 305 299 297 295 293 295 300 302 303 304 305 304 305 305 306 306 305 302 298 299 302 303 304 304 306 306 305 306 305 305 305 304 304 304 304 304
308 309 309 308 309 309 309 309 310 310 310 308 307 309 312 310 310 309 313 313 311 311 310 303 299 298 299 309 302 307 311 306 304 307 304 310 311 309 306 305 308 304 306 303 304 304 305 304 300 301 303 300 302 297 292 297 301 301 303 303 305 306 306 304 304 304 304 304 304 303 304 306 307 307 306 305 305 306 306 305 304 303 303 303 303 303 303
308 308 308 309 309 309 310 309 309 308 305 305 306 311 311 310 310 311 311 311 306 304 303 304 304 298 297 300 299 303 311 306 303 305 304 307 312 307 306 303 304 299 302 309 303 301 301 302 306 299 296 302 297 291 295 298 299 301 302 302 303 303 304 302 302 303 304 304 303 304 305 304 302 302 303 304 305 305 304 304 304 303 302 302 302 301 301
309 309 310 310 310 310 309 309 308 307 308 308 311 314 313 313 312 313 313 312 310 304 303 303 303 298 299 294 295 302 310 304 305 306 306 307 306 309 307 305 297 302 308 303 298 302 299 306 302 295 302 293 292 296 297 300 299 299 300 300 302 302 302 302 303 305 304 304 304 304 303 303 302 302 304 305 305 304 304 304 304 304 302 301 300 301 301
309 310 311 310 309 308 307 308 309 309 310 312 315 315 315 315 314 314 311 311 314 314 305 302 299 300 302 300 304 306 305 298 306 304 305 303 301 305 304 300 297 303 302 299 299 298 303 309 301 295 295 292 295 301 300 299 299 299 299 301 302 303 303 303 305 305 303 301 301 301 301 301 302 303 303 304 304 304 303 303 303 301 300 300 300 300 300
311 311 310 307 307 308 308 308 310 313 314 315 315 313 312 313 305 306 306 304 310 311 306 306 300 303 307 303 299 309 304 303 307 302 303 306 301 301 305 300 301 302 294 296 299 308 304 300 297 295 296 300 301 300 300 301 302 302 303 303 303 303 304 304 305 303 301 299 298 298 299 300 301 303 303 304 304 303 303 303 303 303 302 301 300 301 301
310 309 308 308 308 307 308 310 316 315 314 316 314 308 306 309 305 301 301 304 307 301 307 303 301 305 303 301 303 311 306 303 301 302 297 305 300 296 304 294 301 300 293 295 298 306 294 294 295 295 294 298 297 299 302 302 303 304 304 305 304 304 305 304 305 304 302 302 303 303 303 302 301 304 304 304 304 304 303 303 303 302 301 301 301 302 302
307 306 307 308 308 310 314 315 316 314 314 308 310 307 301 306 301 294 306 297 296 304 305 299 305 304 305 302 301 301 312 305 299 298 301 302 308 297 302 300 301 296 289 290 296 303 295 289 295 292 291 295 296 301 301 301 301 303 305 305 305 305 305 305 305 306 305 306 306 306 306 306 306 305 304 303 303 302 302 303 302 302 302 302 303 302 301
305 307 308 308 309 311 313 314 315 313 309 305 305 305 302 295 303 304 301 297 297 300 308 305 305 302 306 306 305 301 311 313 308 307 304 299 307 304 297 293 303 293 291 290 300 299 297 293 291 289 292 295 297 299 301 301 301 303 304 305 306 305 304 304 304 305 305 304 305 306 307 306 306 305 304 304 303 303 303 302 301 301 302 302 301 301 302
308 307 307 308 309 310 312 312 310 307 306 308 300 291 295 299 303 302 302 295 296 302 303 304 300 302 304 306 306 307 307 312 309 307 302 296 302 299 296 299 299 290 286 296 301 298 295 287 288 289 294 296 298 300 300 300 301 302 303 305 305 305 304 303 303 303 304 305 305 305 306 306 305 304 305 305 304 304 302 302 301 301 301 302 303 302 301
308 308 310 308 309 309 311 299 306 306 293 292 291 290 295 291 296 297 298 304 308 305 305 309 309 310 310 311 307 309 308 311 305 303 300 298 303 300 295 293 292 287 293 301 296 292 288 287 288 291 295 296 298 299 300 301 302 303 304 305 306 306 305 303 302 301 301 301 303 306 305 305 305 305 306 306 304 303 303 302 302 301 302 302 301 301 301
310 310 307 307 304 305 306 291 306 302 293 291 290 288 294 292 297 299 297 301 305 303 306 304 306 305 302 308 305 305 306 306 306 303 300 301 297 294 293 289 291 299 301 295 292 287 288 291 292 293 296 297 299 299 300 300 301 302 303 304 306 307 306 304 304 303 302 303 303 303 303 304 304 304 305 304 303 302 301 301 302 302 302 302 301 300 301
305 302 297 301 297 299 295 290 299 295 291 294 296 298 298 296 298 298 298 307 306 304 307 308 308 305 303 308 307 306 305 301 306 300 295 298 294 294 291 291 296 297 292 287 288 288 288 288 294 295 295 295 297 299 300 301 301 301 301 303 304 305 305 303 302 302 303 303 303 302 301 302 303 302 302 302 302 303 302 300 301 301 301 301 300 300 301
302 294 291 289 286 290 294 292 290 292 300 300 300 303 301 303 302 302 308 310 307 308 306 307 307 306 304 307 302 301 303 302 299 299 300 298 292 289 297 300 298 291 289 288 285 285 287 290 293 294 296 297 298 299 300 300 301 303 302 301 302 304 305 304 302 302 302 302 302 303 302 303 303 302 301 302 302 301 301 302 302 301 301 300 300 300 300
303 301 291 292 288 291 298 292 295 299 303 303 306 305 306 307 308 307 311 310 306 309 308 310 308 307 304 304 302 301 299 300 297 300 300 294 292 295 299 293 287 288 284 284 284 287 288 292 295 296 296 297 298 298 299 300 301 301 301 302 302 303 304 304 304 302 302 302 301 302 302 302 303 303 302 301 301 301 302 302 302 302 301 300 300 300 299
292 295 301 293 290 293 293 300 303 304 307 307 308 308 309 309 307 307 311 310 310 309 308 307 306 305 303 306 304 298 299 300 297 297 299 296 297 292 286 287 287 288 288 286 286 290 291 293 295 296 297 298 298 297 298 299 300 300 300 301 301 302 302 303 304 303 303 301 302 302 302 303 302 302 302 301 301 301 302 302 302 302 301 300 300 299 299
303 294 293 293 298 297 300 302 304 305 306 308 308 308 308 306 306 307 311 311 309 309 310 308 306 304 301 302 300 299 295 299 292 290 296 294 289 285 284 283 284 283 289 289 290 292 293 294 296 296 297 297 297 297 298 299 299 300 300 300 300 301 302 302 304 303 302 303 303 303 303 304 303 302 302 301 300 300 302 302 301 301 301 300 299 299 298
295 294 298 296 299 301 303 304 303 302 305 306 305 306 309 305 306 308 311 309 310 309 307 305 306 301 299 297 292 293 293 297 295 292 292 289 288 289 287 282 285 285 288 292 292 293 294 295 295 295 295 296 297 297 297 298 298 299 299 300 300 300 300 302 303 303 303 303 304 304 304 303 302 301 301 301 301 301 301 301 301 300 300 300 300 299 298
301 295 298 307 301 301 303 301 301 301 302 304 305 307 306 306 307 308 311 310 310 307 304 301 299 297 295 292 290 287 290 297 294 291 289 288 292 288 285 284 286 290 291 293 293 294 294 295 294 294 294 295 295 296 297 297 298 298 298 298 298 299 300 302 303 300 297 300 304 303 303 302 302 302 303 302 301 301 300 300 300 300 300 301 301 300 299
294 294 301 305 307 305 304 308 306 305 305 306 307 309 309 307 310 311 312 309 307 301 298 301 298 294 290 289 293 295 297 294 290 289 287 290 293 288 287 289 290 292 292 291 292 293 294 295 295 295 294 294 295 296 296 297 297 297 297 297 298 298 299 301 303 301 301 303 304 303 304 303 303 303 303 301 300 300 299 298 300 301 301 301 301 301 300
Wind_Speed
22 22 20 21 21 22 23 23 23 22 22 6 4 2 4 4 2 4 7 9 4 10 8 4 5 5 2 3 4 2 5 4 5 6 8 4 4 6 9 6 1 6 3 4 5 4 7 6 5 4 6 9 8 6 7 6 2 2 3 2 3 1 3 5 6 4 2 5 3 2 6 1 2 8 8 7 5 4 3 3 3 2 3 4 5 3 6
22 21 20 20 20 21 23 23 22 20 15 3 4 4 3 0 2 4 8 11 1 6 4 4 5 5 4 5 4 3 4 9 11 9 9 6 5 5 4 4 8 5 5 4 3 3 4 4 4 5 1 4 4 6 8 10 6 5 2 2 3 1 2 1 6 3 2 4 4 2 2 5 5 4 7 7 6 3 1 1 1 2 3 3 3 6 6
21 20 20 20 20 21 22 23 22 20 14 1 2 2 2 2 2 1 5 10 7 5 1 4 6 4 5 6 9 7 5 4 5 6 9 5 4 1 7 4 2 6 2 6 4 7 3 6 4 3 3 4 4 6 9 9 7 7 4 1 2 3 2 2 2 3 4 5 5 4 2 4 2 3 7 8 10 10 2 2 1 1 2 1 2 7 7
21 22 20 20 20 21 22 22 22 20 15 3 1 2 0 3 3 4 5 7 6 5 1 3 4 4 2 8 4 4 3 3 7 5 6 7 6 8 2 1 5 4 6 9 8 9 9 4 5 1 3 1 2 3 8 8 9 9 10 7 1 3 2 3 2 2 1 4 5 2 2 1 2 5 6 8 8 7 3 1 1 3 3 5 5 5 6
20 21 20 19 20 21 22 22 22 20 14 4 2 3 3 2 3 2 3 3 6 4 5 3 2 2 1 3 3 6 5 3 5 7 4 8 6 5 7 3 2 3 9 6 9 6 10 11 9 4 4 1 1 4 5 7 13 12 6 8 2 3 4 4 7 10 7 6 6 3 2 3 3 4 6 6 7 7 7 3 4 1 4 5 1 1 3
20 21 21 20 20 21 21 22 22 21 16 3 1 4 4 2 1 1 1 1 2 3 6 6 6 4 2 3 0 3 5 7 3 3 5 1 6 2 4 9 8 4 5 4 5 3 6 4 4 1 2 0 2 3 7 8 9 8 5 6 3 3 3 2 5 8 6 5 5 4 4 4 2 3 3 5 5 6 5 4 2 1 3 4 4 1 5
19 20 21 20 20 21 22 23 23 22 19 1 1 5 2 2 2 1 2 1 1 1 2 4 6 9 6 3 4 4 6 7 4 2 5 4 6 5 5 6 7 5 3 2 5 1 3 3 1 1 3 3 1 2 0 4 8 7 5 5 2 2 4 3 3 7 6 6 5 4 5 3 2 2 2 4 4 3 3 2 1 1 4 4 4 6 8
18 19 20 20 19 20 22 24 25 24 20 5 6 6 0 2 1 3 2 4 3 3 2 2 4 7 5 3 4 2 3 5 2 3 4 4 5 4 9 5 6 6 6 5 6 2 3 5 3 1 1 2 1 2 1 1 2 5 4 2 2 2 4 4 2 3 3 3 3 2 4 5 4 3 3 2 2 3 1 2 3 2 4 4 4 8 6
16 17 18 18 18 19 20 21 24 25 18 5 6 3 4 1 1 1 3 4 4 3 3 3 4 4 4 4 2 2 3 6 2 5 2 3 3 3 8 6 7 6 8 10 9 2 5 4 5 5 2 1 2 0 2 2 2 4 3 3 2 2 3 2 2 3 3 1 1 2 2 2 0 3 4 4 1 2 3 2 3 0 3 1 2 6 5
15 16 17 18 16 17 18 19 22 24 17 5 2 4 0 1 1 1 2 3 4 2 1 1 1 5 2 2 1 1 1 1 1 5 3 5 3 1 5 1 5 5 7 7 5 2 0 2 2 1 3 3 3 1 2 0 2 1 2 2 2 2 4 4 3 3 3 3 2 4 2 3 3 1 3 3 2 2 1 0 1 1 2 2 4 3 5
14 15 16 17 16 16 17 17 19 20 11 6 3 2 1 1 1 0 2 4 1 2 1 3 3 2 1 2 4 3 3 2 1 1 2 3 5 2 2 3 4 4 4 5 3 2 3 3 5 5 6 6 6 4 5 7 5 3 1 1 2 1 2 2 0 1 4 3 2 3 3 4 1 5 3 1 2 2 2 2 2 1 3 2 5 5 5
13 14 14 15 15 15 15 16 16 18 11 2 1 3 1 1 1 1 2 4 2 1 1 3 2 1 4 1 0 4 5 6 4 2 7 3 2 1 3 4 1 5 2 3 5 8 8 9 12 11 10 9 9 8 8 8 6 4 2 1 3 2 3 3 1 1 3 2 3 3 5 3 5 2 2 2 3 3 4 1 1 2 1 1 2 4 4
12 12 13 14 14 14 14 14 14 15 14 4 2 4 2 2 1 1 3 4 4 1 4 2 1 1 2 4 6 4 2 1 2 4 5 3 4 3 3 3 2 3 2 5 8 5 4 6 5 5 7 5 7 9 10 8 7 6 4 4 1 3 3 3 2 1 2 1 3 3 0 3 4 1 1 0 0 1 4 4 3 2 3 2 1 4 3
11 11 12 12 13 13 13 13 13 14 15 8 4 3 1 1 1 1 1 4 2 0 1 3 1 3 4 4 6 3 1 4 2 1 4 2 3 4 2 1 2 2 2 5 5 3 4 2 4 4 3 1 2 1 3 2 5 6 5 5 3 3 3 2 2 1 1 1 0 2 3 3 3 3 2 1 2 3 1 3 4 3 3 2 1 1 4
9 10 10 11 12 12 12 12 12 12 14 10 0 2 3 2 2 1 1 2 4 2 1 3 4 4 3 2 2 4 3 2 3 3 2 1 1 1 1 2 1 2 3 3 2 1 1 2 3 3 2 3 2 1 1 1 1 3 4 3 3 2 2 0 2 1 1 2 1 2 3 3 5 4 6 1 3 2 3 2 2 4 2 2 2 2 5
9 9 9 10 10 10 11 12 12 12 13 10 2 2 4 3 1 2 1 1 4 2 4 4 2 4 3 2 0 1 3 4 2 2 3 1 1 0 2 1 0 2 4 4 2 2 1 2 1 1 1 1 1 0 2 2 2 2 3 2 2 4 3 1 2 2 3 3 3 2 2 1 4 9 7 4 2 3 4 1 5 5 2 2 1 3 4
8 8 8 8 9 9 10 11 11 10 12 11 3 2 3 4 2 2 1 2 1 0 2 3 3 2 3 2 1 2 2 2 3 3 3 3 2 1 2 1 2 1 2 3 1 2 3 3 1 0 1 0 1 0 1 0 1 1 2 2 4 2 1 1 3 3 3 3 3 3 3 2 5 8 6 5 3 4 3 6 1 6 3 1 2 4 5
7 7 7 7 8 8 9 9 11 10 11 10 3 2 3 4 2 1 2 2 1 1 2 6 6 3 3 2 2 2 3 3 1 1 1 2 1 2 2 1 3 2 2 2 2 2 2 2 2 2 1 2 0 1 2 4 3 1 3 1 1 1 1 1 4 3 4 5 3 3 4 4 2 8 8 5 6 3 4 5 4 6 4 2 1 3 4
7 6 6 7 7 7 7 8 9 11 11 10 3 1 1 4 5 1 4 2 1 1 2 2 3 2 2 3 3 3 0 1 2 2 2 2 2 1 2 2 2 2 3 2 1 2 2 2 2 0 2 3 2 2 3 1 2 3 4 3 2 1 1 1 1 3 4 3 4 4 6 3 8 5 9 7 5 4 5 4 3 5 4 4 2 3 3
6 6 6 6 6 6 7 6 8 9 10 10 5 2 1 3 3 5 3 1 1 2 1 4 5 6 5 4 4 3 2 1 0 1 2 1 2 2 3 2 1 0 2 1 4 1 2 2 2 1 1 2 1 3 1 1 1 4 3 1 2 4 4 2 3 3 2 1 3 2 3 3 7 13 6 4 6 0 5 3 3 4 2 2 2 2 3
6 6 5 5 5 5 5 6 6 7 9 9 5 0 1 1 3 5 3 2 0 3 0 1 1 4 4 5 5 3 8 5 6 3 3 1 2 2 1 1 3 3 3 4 2 3 3 2 3 1 2 0 3 1 2 0 2 4 2 3 3 4 3 2 3 5 2 5 6 4 1 3 10 11 5 6 5 4 4 2 1 5 3 2 2 3 3
6 5 5 5 5 4 5 5 5 5 7 7 5 1 1 0 2 3 2 0 2 3 2 2 2 3 5 4 3 2 2 1 4 1 4 3 1 2 1 1 3 3 2 2 3 2 0 1 2 2 3 2 0 2 1 2 3 2 1 2 3 10 4 1 1 5 5 3 5 1 2 2 6 3 3 4 5 4 3 1 2 2 2 2 3 3 3
5 5 5 5 5 4 4 4 4 5 6 6 5 2 0 3 2 4 2 1 2 3 1 2 1 4 4 6 8 8 7 6 3 3 4 2 3 2 4 3 3 1 1 1 2 1 2 5 3 2 1 4 4 2 2 2 1 3 3 8 2 2 1 2 2 3 4 8 8 4 3 3 7 6 2 1 2 1 2 3 3 4 3 3 3 3 3
5 5 5 5 5 4 3 3 3 3 4 5 4 3 1 2 4 4 1 3 2 4 1 1 2 1 1 2 3 2 3 4 8 8 5 5 5 2 0 3 2 2 2 3 1 2 3 1 1 1 3 3 5 3 5 4 5 3 1 2 4 4 5 4 4 1 1 3 4 9 11 8 8 8 6 4 3 4 2 4 5 3 4 5 5 4 5
5 5 5 5 5 4 3 2 2 3 3 3 2 2 1 1 2 3 2 2 2 2 3 2 1 2 1 2 3 3 5 3 3 6 7 9 9 7 3 3 5 3 4 5 3 4 2 3 2 3 3 3 6 4 2 3 2 7 5 3 2 3 7 6 7 5 7 6 2 2 3 5 7 7 7 9 8 7 6 6 4 4 5 6 5 5 6
5 5 4 5 5 4 3 3 2 2 3 3 3 2 1 1 2 3 1 3 3 1 1 2 1 1 2 4 2 1 1 3 5 6 8 10 11 9 1 4 2 3 4 2 4 6 4 2 2 2 3 3 5 5 4 3 3 3 5 3 0 3 8 3 5 7 9 10 12 9 5 7 9 9 9 7 6 5 7 7 6 6 7 7 6 6 6
6 5 4 4 5 4 4 2 2 1 2 3 2 1 2 3 3 3 1 1 1 1 1 3 3 4 4 9 6 2 2 3 4 6 7 8 9 7 5 3 3 3 3 3 1 1 1 1 3 6 5 2 5 3 2 3 4 4 4 3 5 5 7 4 3 6 7 9 7 7 6 6 6 11 13 12 10 7 6 5 6 7 7 7 7 7 7
6 5 4 4 4 4 3 2 2 1 1 1 2 2 3 3 2 3 3 2 1 2 2 3 4 5 5 5 3 3 4 4 5 6 7 8 8 7 8 8 5 3 3 5 3 4 4 6 7 1 2 3 4 4 2 2 2 3 7 7 10 9 10 9 9 7 9 9 8 8 8 7 6 3 5 7 6 7 8 8 8 8 8 7 6 8 8
5 5 4 4 3 3 3 2 1 1 1 1 3 2 3 3 4 4 3 2 2 3 1 5 6 4 1 3 6 5 2 3 4 6 6 7 9 8 8 8 8 7 3 3 2 2 4 3 3 4 3 4 4 3 5 6 8 10 10 10 11 12 8 12 13 11 11 8 2 6 6 8 4 5 6 7 6 8 9 8 7 6 6 6 7 7 9
4 4 4 4 3 2 2 1 1 3 2 2 1 1 1 2 1 3 5 4 2 1 1 4 4 1 2 3 3 3 3 3 3 5 6 6 6 7 7 7 6 6 3 2 2 4 1 1 1 0 2 1 2 1 4 4 8 9 6 5 12 9 7 8 9 11 12 9 2 5 8 8 1 2 4 6 7 8 7 7 7 6 6 6 7 7 8
3 3 3 3 2 2 2 2 3 1 3 0 1 0 1 1 2 1 6 5 3 0 1 2 5 5 5 1 2 4 6 4 2 5 4 2 1 1 3 5 1 4 5 1 2 2 1 3 3 2 2 3 2 2 3 3 4 5 6 7 9 11 11 11 10 11 12 10 1 1 2 4 2 2 4 6 7 8 6 5 5 5 5 5 7 8 8
3 2 2 3 2 1 1 1 2 1 1 1 1 1 1 2 2 4 5 5 2 1 0 4 3 1 3 2 2 2 3 2 1 1 2 0 3 2 3 3 4 3 5 3 2 1 3 2 2 4 5 6 5 3 4 5 7 11 4 8 8 10 10 11 10 11 11 8 5 4 7 7 7 9 5 7 9 8 8 6 5 4 4 4 5 6 8
1 2 2 2 3 2 2 1 2 2 2 3 7 8 8 8 7 2 3 4 1 1 1 1 3 3 4 3 4 1 2 2 1 2 2 2 2 1 1 2 2 2 7 5 4 4 3 3 3 4 4 8 5 4 3 7 10 11 7 5 5 7 8 8 9 9 8 6 9 10 9 9 8 10 8 3 4 6 7 5 3 2 2 4 6 8 9
1 1 2 2 1 2 1 2 2 3 2 2 1 1 1 10 10 8 3 3 1 1 1 1 3 4 5 3 3 3 4 3 2 3 1 2 1 1 2 2 1 2 6 6 2 2 2 3 4 2 4 5 4 3 4 6 5 8 8 8 8 9 8 8 8 9 9 8 10 12 11 1 4 3 3 4 5 4 3 2 2 2 3 5 8 8 9
1 2 2 3 2 2 3 3 1 0 1 1 2 2 1 6 8 8 7 2 2 1 1 2 1 3 4 3 2 1 3 2 1 1 1 1 2 1 3 2 2 2 2 3 3 4 4 4 3 3 4 3 2 2 4 6 11 11 11 12 11 10 11 9 10 10 9 7 7 9 6 5 6 6 6 7 6 5 3 2 2 2 4 6 7 9 11
1 2 2 3 3 3 2 1 1 1 1 2 2 3 5 9 10 5 3 1 1 1 1 1 1 3 1 4 4 1 1 1 1 1 1 1 1 2 0 1 4 3 2 4 3 3 3 3 3 4 3 2 3 1 2 6 9 12 12 13 12 12 12 13 12 8 5 4 6 5 6 7 8 8 6 5 3 3 2 1 1 2 4 6 8 10 10
2 1 4 5 2 1 1 3 1 1 2 1 4 11 15 11 5 3 1 2 2 2 2 2 4 4 3 4 2 2 2 2 1 1 2 1 0 1 1 1 4 1 2 3 4 5 2 4 2 4 2 2 0 2 3 6 8 11 13 14 13 13 13 12 11 7 3 3 4 5 6 7 7 5 4 4 3 4 3 2 2 3 5 7 8 9 10
3 4 2 1 1 1 2 1 1 1 3 6 7 4 2 2 2 2 2 2 2 3 3 2 5 2 1 2 4 1 2 1 0 3 1 1 2 2 2 3 1 1 4 3 1 3 2 3 4 3 3 2 3 1 5 6 8 9 11 12 13 13 11 9 7 6 6 4 4 6 6 6 5 5 5 4 4 3 2 0 1 1 4 6 7 8 10
5 2 1 1 1 2 2 2 1 6 4 2 1 1 1 1 2 2 2 2 1 2 2 3 4 3 4 6 6 1 2 2 3 1 3 2 2 2 2 3 1 1 2 3 2 4 3 3 2 3 4 1 2 6 7 7 8 8 11 11 12 11 8 6 6 9 10 8 7 11 10 8 7 6 4 3 3 3 2 1 1 1 3 6 7 9 9
2 1 1 1 2 2 1 1 1 3 2 2 1 1 1 1 1 0 2 0 1 2 1 4 2 3 5 6 6 4 3 3 3 3 3 2 2 2 1 2 1 2 3 4 2 3 3 2 3 1 2 2 5 6 8 9 10 11 11 12 12 10 7 5 6 7 8 2 2 8 6 5 4 5 5 5 6 4 3 2 0 3 5 6 8 8 9
0 1 1 2 2 2 2 2 1 1 1 2 1 1 1 0 2 1 1 3 3 2 2 2 1 2 3 4 4 5 1 1 0 1 1 3 1 1 2 3 1 3 4 4 1 2 2 2 3 2 1 4 6 8 8 9 10 11 11 13 12 9 6 5 5 5 6 4 3 5 5 5 6 7 7 8 6 4 2 1 2 3 5 6 7 8 8
2 2 1 1 2 2 2 0 1 1 2 1 1 1 0 1 1 2 2 2 2 1 2 3 2 3 2 4 3 2 2 0 1 1 1 2 1 2 2 1 1 2 3 0 1 2 2 2 2 2 3 4 4 6 7 9 10 11 12 13 13 9 5 4 4 1 1 1 4 5 4 6 7 7 8 7 6 4 3 1 2 3 4 5 6 6 7
3 2 0 1 0 1 1 0 1 1 1 0 1 1 1 0 3 3 2 2 1 1 0 1 3 2 1 1 2 3 1 1 2 2 3 1 2 0 1 1 1 3 2 3 2 2 4 3 3 2 4 4 5 6 7 7 9 9 10 11 11 9 5 3 6 5 4 4 4 3 5 6 7 7 7 7 6 5 3 1 1 2 4 5 5 6 7
1 1 1 2 1 2 1 0 1 1 1 1 2 1 2 2 1 1 1 2 2 2 4 4 3 2 2 2 2 1 3 2 1 1 1 1 1 2 2 3 3 1 1 3 2 3 2 2 1 2 4 4 4 5 7 8 8 9 9 10 11 10 5 0 2 5 3 2 4 5 4 6 8 7 6 6 5 4 3 2 1 3 3 4 5 5 6
2 2 1 1 0 0 0 0 1 1 2 2 3 3 3 1 1 2 3 0 2 2 1 3 1 3 4 1 1 2 2 1 2 2 2 2 2 2 3 2 1 1 3 2 2 1 2 3 2 4 5 7 7 7 6 7 7 8 9 10 10 10 7 2 1 1 2 1 3 4 5 5 7 6 6 6 5 3 3 3 2 2 3 3 4 5 6
1 1 1 2 2 2 0 1 0 1 3 2 3 4 2 1 1 3 1 1 3 4 5 4 3 3 6 1 3 1 2 1 2 2 1 1 2 3 2 1 1 3 2 2 2 5 3 1 4 6 8 10 10 9 8 7 8 8 8 8 9 11 10 3 2 1 2 2 3 4 5 7 7 7 7 6 5 4 4 3 2 2 3 4 5 6 5
2 1 2 2 1 1 1 1 3 3 1 2 2 2 3 3 3 4 2 3 5 6 5 1 4 4 4 2 2 1 1 1 2 1 1 3 3 1 1 2 3 3 3 4 3 1 3 5 5 7 10 11 11 10 9 8 8 8 8 8 9 10 11 7 4 3 3 3 4 4 6 7 8 8 8 7 6 5 4 3 3 3 4 5 4 5 5
1 0 0 1 2 2 2 3 0 1 2 1 0 1 1 1 3 3 3 3 4 3 3 2 3 2 3 1 1 1 1 2 3 1 1 3 1 2 1 2 3 2 2 3 3 4 6 5 6 9 10 10 10 10 9 8 8 9 10 10 10 10 11 10 6 6 6 5 4 5 7 8 9 8 7 7 7 6 4 3 3 4 5 5 4 5 5
1 1 1 2 2 3 3 1 1 1 0 1 1 1 1 3 4 5 3 1 2 3 2 2 1 1 1 2 0 1 1 1 2 0 0 0 2 2 2 5 7 9 0 1 5 6 8 10 10 11 10 10 9 9 9 9 9 10 10 10 11 10 11 11 9 6 5 4 5 7 8 9 8 8 8 8 7 6 4 4 4 5 5 5 4 5 5
0 1 1 0 2 3 3 1 1 2 2 1 1 3 1 2 4 3 0 1 0 1 1 1 1 2 1 1 0 0 0 1 2 0 2 2 1 3 3 7 4 5 8 8 9 10 10 10 11 12 11 11 11 11 10 10 10 10 10 10 11 10 10 11 11 7 6 5 7 8 10 9 8 8 8 8 7 6 6 5 5 5 5 5 4 5 4
1 0 2 2 4 1 2 2 0 2 3 3 2 3 3 3 3 1 1 1 1 1 1 1 1 0 0 0 0 1 1 0 1 2 2 3 2 3 4 7 8 9 10 9 9 9 10 11 11 12 12 11 11 11 11 11 11 11 11 11 11 9 10 11 8 6 6 5 5 8 8 7 8 8 8 8 8 7 6 6 5 4 4 4 4 3 3
0 1 2 1 3 3 3 1 2 5 5 5 3 2 3 3 2 1 1 1 1 1 1 1 1 1 0 1 2 2 1 1 1 1 2 0 0 4 6 8 10 10 9 10 11 11 11 11 11 13 12 12 13 12 12 11 11 11 11 11 10 10 9 9 6 8 8 7 8 8 6 8 10 9 8 8 8 7 6 5 5 4 3 3 2 2 2
Wind_Direction
344 341 339 338 341 344 343 345 345 348 348 355 4 249 21 18 58 287 304 351 341 74 63 31 58 59 30 235 52 351 56 2 335 13 3 37 21 43 47 15 62 33 54 75 79 52 80 14 72 115 81 62 19 318 322 325 328 328 47 222 26 276 33 79 71 88 119 194 247 330 24 291 221 39 27 24 29 352 8 16 45 98 138 158 134 93 117
344 341 339 338 342 345 344 344 346 348 4 327 294 50 85 188 11 347 351 348 290 67 85 89 78 78 51 59 63 21 69 30 20 29 15 28 23 53 41 62 40 82 36 69 75 304 112 34 73 93 319 68 334 351 7 354 49 357 39 339 19 267 52 331 119 136 172 200 193 162 127 48 51 21 13 9 18 40 26 44 253 109 25 347 173 154 147
344 341 340 339 343 347 346 345 344 350 351 290 289 60 151 134 228 270 315 359 34 78 32 111 95 79 65 57 38 10 58 27 41 25 39 18 42 192 49 17 13 67 42 81 78 39 19 120 13 81 63 77 315 2 4 5 39 35 36 325 326 57 52 311 178 165 174 190 197 167 162 26 23 24 358 20 17 8 308 163 58 111 74 276 92 109 92
345 343 341 341 344 347 348 346 345 348 354 308 295 98 274 17 74 331 13 10 44 75 19 45 90 95 90 63 26 11 54 46 20 5 61 32 45 52 122 55 49 65 74 57 42 53 30 67 148 166 107 70 39 343 338 13 19 24 49 34 28 96 78 33 335 304 316 54 70 60 310 22 63 12 16 8 2 10 2 26 80 77 143 102 38 56 108
346 344 344 343 345 349 348 348 346 350 351 305 107 64 53 133 58 348 15 302 56 57 43 37 1 92 310 75 350 32 13 306 42 2 70 15 16 63 40 351 57 64 86 85 75 35 79 66 81 30 95 61 349 305 336 3 11 2 32 4 82 96 96 36 57 66 80 90 78 74 24 68 61 360 8 358 12 357 15 32 77 357 159 99 100 328 76
348 347 347 346 346 350 350 349 350 351 354 288 281 48 343 67 164 200 319 328 1 3 39 7 82 72 103 85 143 29 47 43 47 23 67 219 15 40 29 37 30 35 77 120 93 62 72 46 81 119 57 48 36 52 18 22 349 7 48 4 61 80 101 81 92 88 88 76 81 60 74 55 31 349 334 347 351 3 32 47 46 350 350 94 123 148 99
349 349 348 349 348 351 353 351 352 356 350 280 359 109 20 55 116 83 309 95 4 333 330 0 60 66 44 93 37 68 57 67 38 8 359 32 28 358 92 29 24 38 8 54 99 352 106 74 28 82 65 40 12 91 306 42 7 21 46 40 25 105 67 71 79 109 92 69 57 40 32 27 330 322 323 315 320 342 1 28 95 128 83 81 91 107 95
350 350 351 351 350 354 356 354 353 357 350 323 73 41 82 70 39 99 19 75 82 5 15 20 36 68 354 76 8 45 26 74 46 43 17 88 55 346 79 64 53 44 69 75 84 85 52 114 121 201 157 114 341 79 347 331 26 14 41 2 45 284 108 116 121 107 90 58 41 28 14 357 331 356 337 313 312 319 19 92 97 115 104 89 106 128 111
352 352 352 354 353 357 360 359 358 356 353 60 50 65 22 48 337 334 112 69 4 347 12 37 32 80 25 70 66 82 39 86 42 78 5 22 76 93 106 100 89 46 74 84 93 76 100 109 98 169 195 79 148 323 138 222 61 8 34 18 28 1 117 44 150 147 138 73 350 332 349 339 156 58 48 43 92 149 87 117 59 307 121 69 155 160 135
354 353 354 355 356 1 3 5 5 1 349 100 70 66 354 94 316 293 109 88 347 19 326 330 192 64 15 41 50 117 85 128 251 96 43 54 49 82 118 113 89 81 68 60 35 17 209 18 43 101 52 78 86 351 70 102 344 57 49 333 42 22 137 154 170 177 142 145 271 306 298 180 188 157 50 2 104 61 3 91 105 62 11 193 210 119 99
354 354 355 356 359 4 7 9 12 11 6 44 59 64 27 348 341 17 35 95 64 30 357 36 64 71 45 59 106 79 95 118 245 144 107 25 51 44 147 143 94 86 73 53 29 10 76 76 91 105 95 82 80 63 92 75 44 21 34 92 79 94 155 116 303 219 137 198 276 269 224 220 175 77 32 278 302 6 299 123 61 27 256 7 33 90 111
356 354 355 356 360 5 10 11 16 23 30 8 17 79 38 155 302 166 91 90 61 339 66 69 47 137 125 167 102 91 87 78 66 341 105 87 90 147 94 89 98 93 79 100 130 117 119 96 93 86 77 81 80 72 60 58 43 36 354 284 143 140 123 121 206 159 144 204 211 199 226 220 59 349 354 293 255 230 244 311 90 129 172 149 122 97 86
358 355 355 356 359 5 11 12 15 23 21 359 0 65 28 116 62 23 96 104 110 47 112 106 356 1 125 130 98 89 77 105 76 90 78 116 101 82 32 67 62 85 1 120 148 127 92 83 62 68 81 67 70 67 52 38 22 12 45 17 195 165 165 143 128 83 141 211 197 231 157 40 323 314 351 140 192 28 184 130 127 78 50 10 140 53 45
359 357 355 354 357 5 12 14 12 19 21 13 34 44 46 253 19 351 82 103 88 149 10 114 144 135 122 98 109 121 104 88 47 328 110 57 91 90 96 24 44 303 145 125 99 121 121 168 128 157 123 352 125 167 36 21 27 5 2 5 326 178 123 203 129 265 210 88 303 4 7 262 201 184 147 173 123 62 6 228 141 94 36 15 339 349 15
360 358 355 352 356 1 10 14 13 13 18 15 104 47 49 45 82 98 247 62 126 112 238 159 178 178 148 127 187 132 132 127 153 90 10 333 174 79 32 39 23 121 157 201 137 44 86 145 160 181 144 206 213 150 61 210 58 17 348 347 13 23 276 147 247 126 248 190 179 198 185 224 182 132 125 127 93 94 91 308 201 120 79 75 84 22 13
358 359 354 351 353 0 8 13 13 13 16 8 72 18 45 27 154 104 44 127 135 153 202 226 147 155 139 119 208 152 144 154 104 126 146 66 349 355 152 324 68 148 107 71 59 99 108 213 158 202 208 165 66 164 197 357 215 107 35 5 74 66 58 129 260 139 168 189 215 200 199 160 83 156 164 133 178 152 179 226 251 133 119 101 26 34 27
356 356 352 348 350 356 6 10 12 15 18 22 18 343 25 357 355 33 351 357 7 26 64 117 122 116 110 124 200 164 186 144 177 169 161 166 151 328 295 32 87 90 118 151 136 163 138 87 50 38 97 153 164 218 96 39 168 191 139 93 74 89 33 166 181 189 210 201 208 224 213 206 172 162 157 165 166 178 230 290 242 142 176 239 6 355 1
350 354 350 343 347 351 2 7 9 13 19 17 28 27 12 360 4 206 68 42 70 187 228 177 157 170 197 177 170 99 110 104 102 1 72 93 278 185 151 218 168 62 279 198 155 137 119 161 194 192 176 136 75 127 238 126 150 180 152 111 153 81 130 255 231 215 186 210 244 292 245 221 175 169 160 146 174 193 259 244 91 157 198 214 303 323 336
344 352 346 340 341 349 357 5 8 6 15 13 3 197 72 1 345 2 107 80 15 238 116 193 331 286 71 64 51 133 69 339 137 165 128 173 148 31 67 68 313 185 13 148 152 188 197 133 16 274 190 155 182 215 110 180 193 98 136 142 147 153 134 147 357 218 217 212 243 268 288 242 161 137 162 159 168 226 239 83 134 170 190 176 233 310 301
338 347 342 334 333 343 353 3 8 5 6 18 3 98 9 345 4 3 29 71 57 286 213 196 186 208 183 194 155 165 154 146 355 168 181 172 138 183 179 174 149 346 106 199 168 52 230 184 146 151 209 158 178 118 199 223 121 174 185 207 242 167 182 196 184 149 73 178 233 302 276 83 153 130 136 179 224 336 83 141 165 180 179 190 245 279 299
333 342 337 328 325 338 352 353 7 6 2 17 16 354 184 58 356 19 14 120 29 292 348 141 268 257 204 229 228 189 182 219 169 206 186 51 132 197 214 227 134 176 176 180 210 179 206 174 163 185 22 192 120 200 242 87 222 222 256 179 231 144 233 185 200 198 178 182 191 208 346 81 161 162 191 180 220 85 123 62 209 174 209 233 255 228 251
323 337 332 319 318 329 338 349 1 5 2 20 17 102 204 78 14 352 346 334 204 239 319 351 299 272 259 274 272 253 261 55 171 36 145 167 182 256 13 127 162 194 140 124 97 101 243 106 102 157 178 142 137 238 139 210 236 120 219 184 230 183 210 168 227 174 213 197 224 22 19 254 203 242 60 142 135 96 88 186 227 210 227 207 244 232 238
318 334 333 314 314 315 327 344 357 10 356 38 33 44 250 347 346 346 277 235 220 261 280 264 263 259 269 256 239 239 247 255 218 180 217 176 175 200 209 196 218 177 100 247 238 36 124 167 193 136 106 196 185 170 205 258 319 152 190 203 305 24 71 121 283 217 254 277 254 287 297 235 229 232 244 186 163 112 147 202 219 212 250 216 240 258 269
315 326 322 308 305 311 304 326 349 4 13 67 51 22 13 336 320 320 119 85 77 312 220 146 261 181 195 75 80 140 198 207 217 218 196 213 226 184 234 256 37 119 237 198 329 210 146 141 75 174 239 173 153 194 206 214 224 178 218 197 218 190 154 185 230 116 139 254 153 217 232 227 229 234 228 233 250 264 248 226 225 238 214 209 218 253 264
309 322 314 298 298 300 303 298 337 0 17 355 1 18 324 281 360 354 306 307 8 31 317 313 277 51 63 333 283 259 227 205 161 187 191 208 222 225 230 150 183 219 216 164 155 117 121 163 165 178 226 176 185 235 155 253 239 161 219 223 158 216 173 212 226 194 216 250 112 252 296 258 246 241 241 243 241 229 215 221 238 241 216 211 224 229 252
310 316 310 290 290 295 293 307 339 7 343 355 18 13 354 328 343 320 9 70 104 106 270 298 76 134 312 311 267 275 86 188 198 187 199 206 213 237 165 125 120 54 87 118 181 199 163 164 140 152 216 217 193 248 208 195 40 155 233 238 103 103 145 216 184 214 242 269 269 254 246 267 255 241 237 235 222 212 215 223 229 212 207 215 225 226 255
315 316 303 286 283 276 271 274 280 328 352 15 311 305 265 278 265 265 212 169 190 178 165 245 305 311 348 320 314 321 241 217 208 208 208 213 219 223 203 202 123 131 140 118 11 122 122 188 188 222 202 247 169 227 150 173 200 175 212 193 142 157 213 158 156 217 236 237 240 184 225 256 232 220 226 226 227 219 218 193 202 205 219 228 239 245 240
318 319 299 285 283 280 274 257 276 306 192 271 303 287 288 266 248 240 248 291 278 289 311 291 279 313 320 266 260 268 258 227 216 214 219 219 216 214 216 212 188 152 160 163 171 196 199 203 220 128 105 136 179 223 164 68 69 249 230 208 185 204 204 170 203 213 237 234 226 180 217 265 267 226 188 201 183 187 193 196 203 212 227 234 245 258 263
318 312 298 288 285 291 273 279 294 306 340 302 324 292 255 248 252 224 223 229 308 100 283 281 276 275 343 354 318 304 297 252 220 214 218 217 207 208 210 208 205 211 176 213 242 186 201 225 119 170 192 180 178 196 137 223 230 234 236 190 182 221 188 191 218 230 244 267 261 169 195 233 236 194 183 185 176 187 197 200 203 218 232 234 242 252 272
321 304 297 296 300 266 254 275 301 317 313 309 316 220 165 136 142 220 195 197 214 66 35 0 328 333 328 277 282 272 278 268 267 240 229 216 206 204 204 196 212 207 201 220 201 229 192 151 196 290 28 125 94 141 224 251 254 258 253 185 204 220 215 218 226 233 250 252 255 190 216 238 231 161 186 183 180 194 199 198 200 206 222 231 246 260 265
322 318 296 287 254 242 227 213 233 27 11 238 279 118 175 244 136 116 169 192 190 320 107 190 269 308 302 210 280 307 330 353 72 78 83 75 102 170 164 168 138 189 200 91 51 358 347 235 164 169 89 164 144 207 238 227 257 274 226 194 210 213 212 221 222 233 244 257 94 187 209 235 167 177 222 206 189 200 207 209 194 205 233 250 259 273 282
326 298 281 251 257 283 294 338 312 181 221 223 211 36 43 17 88 109 155 171 178 212 113 321 312 289 324 302 329 309 310 352 85 105 87 151 82 67 96 153 140 96 89 104 191 247 236 204 198 173 143 177 180 225 208 226 240 259 199 189 217 213 213 225 226 230 228 222 175 229 239 221 189 204 223 193 203 194 209 204 200 205 219 254 279 276 274
280 235 248 277 266 250 264 288 287 243 252 302 297 277 238 230 249 238 103 156 191 136 181 295 314 329 298 341 315 317 322 234 107 13 107 1 122 161 96 358 90 179 163 172 182 228 209 201 210 230 181 151 185 218 201 217 234 253 285 301 260 229 227 226 233 235 233 193 181 211 233 229 200 211 227 151 161 187 196 201 187 166 219 255 274 282 290
269 279 266 279 262 266 292 264 215 307 308 299 303 120 210 195 216 225 189 206 238 222 193 266 311 315 304 333 298 89 338 360 341 10 356 69 29 156 128 158 131 238 185 208 166 229 195 208 217 193 125 200 207 243 244 261 305 316 315 296 286 275 253 239 239 240 229 213 207 218 235 89 101 149 178 205 212 182 173 158 176 234 275 283 287 291 299
217 205 236 227 237 244 218 203 193 291 15 326 281 275 115 171 175 165 185 186 162 179 223 223 210 289 309 323 305 23 15 320 331 22 309 49 353 130 152 195 120 244 187 179 236 216 235 219 125 212 232 138 181 230 243 335 332 320 314 307 306 305 294 266 248 239 237 198 189 212 208 156 169 176 192 201 206 167 165 181 170 209 282 289 293 303 311
232 228 218 193 156 169 127 159 246 273 40 28 22 68 119 133 140 149 167 325 342 20 284 310 206 258 275 308 327 26 357 291 32 283 231 312 137 66 44 154 238 220 106 179 234 169 228 138 172 246 147 181 235 201 312 304 314 311 306 303 308 303 290 276 269 258 214 198 199 197 186 189 204 209 204 204 170 137 140 205 211 226 269 293 306 312 309
163 191 139 123 139 203 75 48 83 249 45 12 89 122 122 115 78 92 88 294 214 209 266 311 281 253 242 291 298 292 344 317 201 213 169 240 275 67 190 194 246 166 217 226 223 239 184 137 233 258 218 218 100 79 342 337 314 307 312 311 310 306 293 278 263 252 135 142 160 185 187 187 194 194 202 195 158 136 167 214 258 294 299 307 311 311 309
168 142 175 233 220 101 101 116 61 112 130 133 148 150 198 232 130 166 179 238 209 205 223 196 251 285 182 254 264 103 312 275 70 336 327 117 241 207 188 234 273 238 247 254 245 88 135 197 219 249 253 114 103 12 346 324 317 312 316 318 319 314 301 279 249 207 178 155 191 187 182 186 188 191 192 181 154 161 151 133 301 270 295 309 307 304 304
167 194 202 296 349 70 39 44 52 150 164 165 242 279 139 191 156 208 202 217 213 232 179 210 256 231 229 250 262 136 259 308 295 238 261 162 247 277 183 251 111 288 278 270 202 163 239 216 222 226 257 96 13 0 348 332 322 323 329 329 328 313 300 277 230 205 202 210 192 177 172 169 184 178 173 147 124 135 132 144 240 305 321 310 305 304 308
170 149 93 121 59 76 110 62 46 152 195 224 205 271 160 138 206 249 115 178 267 251 177 238 227 228 213 238 281 293 128 180 229 255 238 240 147 267 115 246 128 243 257 258 223 175 248 251 163 188 233 43 353 355 348 342 336 329 334 337 337 324 307 278 241 224 228 204 134 158 169 151 145 131 140 138 138 138 147 165 347 324 313 309 310 315 318
198 148 171 115 47 353 338 316 256 210 224 225 192 147 83 243 205 202 200 229 242 233 190 240 230 260 223 226 219 251 107 267 3 24 263 257 84 247 208 249 107 246 259 256 152 207 222 253 206 221 128 22 351 350 348 342 339 330 334 342 344 339 319 300 262 229 201 159 131 129 135 132 130 123 132 138 138 131 135 99 338 312 310 317 318 319 321
65 19 21 329 288 294 274 213 198 229 215 262 359 303 358 307 326 237 225 241 242 197 220 175 239 246 240 203 224 251 252 153 222 210 245 253 110 252 270 188 163 233 255 227 52 238 236 243 228 190 79 12 1 344 349 342 341 336 335 341 343 344 356 10 339 3 341 264 150 133 126 133 128 132 139 137 131 129 123 112 311 310 318 318 317 324 328
257 163 305 351 233 160 181 209 198 212 139 250 44 351 155 255 215 225 224 211 355 251 162 217 278 280 254 176 235 211 285 150 240 201 230 260 97 350 265 241 215 236 220 135 212 206 224 237 229 132 32 354 345 346 341 336 333 331 326 334 339 332 333 58 71 39 25 27 14 63 117 124 128 136 135 126 125 125 121 127 348 334 329 321 324 330 340
210 229 199 199 169 139 185 282 203 199 336 104 136 240 210 229 188 167 252 226 189 238 197 194 201 238 307 137 293 160 188 176 116 181 206 34 289 235 235 243 225 23 57 238 224 232 248 270 195 38 353 337 322 336 335 334 330 330 330 332 335 339 329 105 107 121 98 71 91 80 90 118 126 129 127 121 126 127 127 101 36 340 329 319 326 345 356
146 61 14 139 133 60 51 308 316 134 227 202 211 238 198 280 30 175 238 147 195 253 144 217 232 210 268 115 237 193 256 251 89 249 257 161 231 222 232 274 25 263 247 242 221 235 282 226 102 359 336 328 334 332 328 321 322 324 325 323 329 334 328 265 99 119 130 119 103 124 137 145 136 128 121 119 118 118 114 87 43 354 339 338 349 359 5
142 175 106 75 320 302 151 243 74 242 235 200 216 206 179 206 203 248 184 188 235 245 253 250 230 250 271 210 285 288 154 183 211 212 178 177 247 249 215 126 225 275 266 235 229 243 235 102 340 319 327 328 323 317 313 310 314 314 321 322 323 321 321 279 190 218 123 127 146 165 158 158 140 133 131 130 128 121 101 96 68 23 10 10 18 13 13
109 53 89 107 118 272 8 237 206 215 12 216 229 182 198 223 241 263 216 202 241 265 280 260 257 269 266 198 195 182 148 198 246 126 203 255 260 293 87 260 251 230 253 244 258 328 6 329 316 326 324 320 315 313 309 307 307 310 313 311 310 311 320 301 219 193 177 152 150 143 151 156 141 133 130 128 123 114 111 103 83 50 41 36 27 16 15
197 253 112 217 244 195 197 229 32 293 225 238 327 188 298 335 302 283 216 215 246 258 260 263 261 166 217 149 262 314 134 195 268 171 273 314 331 299 355 272 249 233 215 302 339 350 308 304 312 315 316 314 310 310 308 306 308 311 309 308 307 307 309 308 260 192 162 164 164 151 158 157 144 138 133 128 125 120 118 105 93 74 63 55 41 35 30
112 132 153 214 205 198 240 19 347 309 83 268 189 242 239 282 291 283 285 211 236 264 273 249 193 237 291 87 243 197 206 121 263 322 275 238 303 316 328 301 308 296 321 109 313 318 318 322 320 317 311 311 310 307 301 302 304 304 304 303 304 305 301 300 290 218 190 175 170 160 163 160 143 136 134 132 126 124 123 118 103 88 74 64 53 45 39
81 345 56 149 258 235 223 250 253 262 252 276 267 256 242 263 267 276 35 256 218 189 150 138 146 256 22 296 247 73 86 57 335 284 263 312 349 317 307 286 282 309 323 334 326 320 321 322 320 315 312 310 310 309 304 300 303 301 301 300 304 304 299 297 295 226 195 191 171 165 156 147 143 140 141 136 130 131 127 119 108 100 86 71 61 54 42
23 159 257 229 248 340 94 270 282 299 293 262 228 267 262 275 277 289 106 280 285 240 184 294 54 7 208 77 37 290 69 354 280 17 342 321 8 317 300 297 311 329 326 326 319 317 316 316 315 311 310 309 307 305 301 299 299 298 297 295 299 300 294 295 285 146 127 220 164 147 154 150 138 134 128 131 136 135 126 119 115 103 88 72 62 53 44
110 230 253 211 216 238 238 225 198 232 255 286 284 232 213 247 238 283 116 213 239 295 30 126 193 61 60 4 24 341 301 249 62 330 280 103 92 305 313 320 322 325 321 317 315 316 316 316 316 314 311 306 302 302 299 297 295 293 291 293 295 295 289 289 268 175 171 169 158 148 135 131 125 129 136 140 144 141 131 122 119 106 83 72 77 66 35